Location: Miami
(25.6830°N, 80.1700°W)
Time: 14:21:31
(UTC-04:00)

Envisat - Visible Passes

Search period start: 22 April 2018 00:00
Search period end: 02 May 2018 00:00
Orbit: 764 x 766 km, 98.2° (Epoch: 22 April)

Date Brightness Start Highest point End Pass type
(mag) Time Alt. Az. Time Alt. Az. Time Alt. Az.
22 Apr 3.2 21:04:38 10° S 21:09:41 70° W 21:14:45 10° NNW visible
23 Apr 3.3 20:28:14 10° SSE 20:33:03 45° ENE 20:37:52 10° N visible
23 Apr 5.7 22:09:45 10° SW 22:12:09 13° W 22:14:34 10° WNW visible
24 Apr 4.4 21:30:41 10° SSW 21:35:17 35° W 21:39:54 10° NNW visible
25 Apr 2.9 20:53:29 10° SSE 20:58:33 89° ENE 21:03:38 10° NNW visible
26 Apr 3.7 20:17:25 10° SE 20:21:58 34° ENE 20:26:31 10° N visible
26 Apr 5.4 21:57:34 10° SW 22:00:57 18° W 22:04:21 10° NW visible
27 Apr 3.9 21:19:17 10° S 21:24:07 46° W 21:28:59 10° NNW visible
28 Apr 3.0 20:42:24 10° SSE 20:47:25 68° ENE 20:52:28 10° N visible
29 Apr 4.1 20:06:44 10° SE 20:10:54 26° ENE 20:15:04 10° NNE visible
29 Apr 5.1 21:45:45 10° SSW 21:49:45 24° W 21:53:48 10° NW visible
30 Apr 3.4 21:07:58 10° S 21:12:57 62° WSW 21:17:59 10° NNW visible
01 May 3.2 20:31:26 10° SSE 20:36:19 51° ENE 20:41:13 10° N visible
01 May 5.7 22:13:41 10° WSW 22:15:28 12° W 22:17:15 10° WNW visible
